Regional Weather Roundup
Issued by NWS

Home | Current Version | Previous Version | Graphics & Text | Print | Product List | Glossary On
Versions: 1 2 3 4 5 6 7 8 9 10 11 12 13 14 15 16 17 18 19 20 21 22 23 24 25 26 27 28 29 30 31 32 33 34 35 36 37 38 39 40 41 42 43 44 45 46 47 48 49 50
276
ASUS44 KJAN 300810
RWRMS

MISSISSIPPI HOURLY WEATHER ROUNDUP
NATIONAL WEATHER SERVICE JACKSON MS
300 AM CDT TUE SEP 30 2014

NOTE: "FAIR: INDICATES FEW OR NO CLOUDS BELOW 12,000 FEET WITH NO
SIGNIFICANT WEATHER AND/OR OBSTRUCTIONS TO VISIBILITY.

MSZ001>002-007>008-010>013-018>021-025>028-034>036-300900-
NORTHWEST MISSISSIPPI

CITY           SKY/WX    TMP DP  RH WIND       PRES   REMARKS
CLARKSDALE     FAIR      63  61  94 CALM      29.93S
CLEVELAND      FAIR      63  60  89 N3        29.90F
GREENWOOD      CLEAR     63  61  93 NE3       29.91S
GREENVILLE     CLEAR     67  60  78 CALM      29.90F
GRENADA        FAIR      61  61 100 CALM      29.91F
OLIVE BRANCH   CLEAR     63  63 100 CALM      29.93S
OXFORD         FAIR      59  59 100 CALM      29.94S
TUNICA         SUNNY     61  59  94 NW3       29.93S
$$

MSZ003>006-009-014>017-022>024-029>033-037>039-300900-
NORTHEAST MISSISSIPPI

CITY           SKY/WX    TMP DP  RH WIND       PRES   REMARKS
COLUMBUS AFB   CLEAR     63  63 100 CALM      29.91S
CORINTH        FOG       59  57  94 CALM      29.93S VSB 1/2
GOLDN TRIANGLE CLEAR     64  57  77 CALM      29.91R
STARKVILLE     FAIR      61  61 100 CALM      29.91S
TUPELO         CLEAR     63  60  90 NE5       29.92S
$$

MSZ040-058-300900-
CENTRAL MISSISSIPPI

CITY           SKY/WX    TMP DP  RH WIND       PRES   REMARKS
JACKSON INTL   CLEAR     66  64  93 CALM      29.90S
JACKSON HAWKNS CLEAR     69  65  86 CALM      29.90S
MERIDIAN KEY   CLEAR     65  64  97 CALM      29.90S
MERIDIAN NAS   CLEAR     66  64  93 CALM      29.91S
RAYMOND        FAIR      64  59  82 CALM      29.90S HAZE
VICKSBURG      CLEAR     65  63  93 CALM      29.89S
$$

MSZ059>079-300900-
SOUTH MISSISSIPPI

CITY           SKY/WX    TMP DP  RH WIND       PRES   REMARKS
BROOKHAVEN     FAIR      66  66 100 CALM      29.91S FOG
COLUMBIA       FAIR      68  68 100 CALM      29.87S FOG
HATTIESBURG    CLEAR     71  69  93 CALM      29.89S
MCCOMB         CLEAR     73  67  81 NE3       29.89S
NATCHEZ        CLEAR     70  66  88 CALM      29.90R
PINE BELT      CLEAR     70  64  83 N5        29.90S
$$

MSZ080>082-300900-
COASTAL MISSISSIPPI

CITY           SKY/WX    TMP DP  RH WIND       PRES   REMARKS
BILOXI         CLEAR     73  72  97 E5        29.87R
PASCAGOULA     CLEAR     69  68  96 CALM      29.87S
GULFPORT       CLEAR     72  70  93 CALM      29.86S
$$



USA.gov is the U.S. government's official web portal to all federal, state and local government web resources and services.